Track EUTE HOT BIRD 13B (HB 8) now! EUTE HOT BIRD 13B (HB 8) is classified as:
1 29270U 06032A 21020.92271782 .00000095 00000-0 00000-0 0 9998 2 29270 0.0608 38.6054 0005465 275.3744 151.6598 1.00272246 27529